This demonstration page uses our WeatherBlox Daily Observations layout. Learn more.

Left ArrowRight Arrow

Hourly Observations for June 18, 2022

Temp ( °F °C ) Dew Point ( °F °C ) Humidity (%) Winds ( mph kmh ) Pressure ( in mb ) Visibility ( mi km ) Precip ( " mm )
12:15 am 00:15 Clear 75 24 55 13 50 50 N 8 13 29.78 1008 10 16 0.00 0.00
12:35 am 00:35 Clear 73 23 55 13 53 53 N 6 9 29.78 1008 10 16 0.00 0.00
12:55 am 00:55 Clear 72 22 55 13 57 57 N 3 6 29.78 1008 10 16 0.00 0.00
1:15 am 01:15 Clear 72 22 55 13 57 57 Calm 29.78 1008 10 16 0.00 0.00
1:35 am 01:35 Clear 70 21 57 14 64 64 Calm 29.78 1008 10 16 0.00 0.00
1:55 am 01:55 Clear 70 21 57 14 64 64 SW 3 6 29.78 1008 10 16 0.00 0.00
2:15 am 02:15 Clear 70 21 55 13 60 60 WSW 5 7 29.78 1008 10 16 0.00 0.00
2:35 am 02:35 Clear 66 19 57 14 73 73 W 5 7 29.78 1009 10 16 0.00 0.00
2:55 am 02:55 Clear 64 18 57 14 78 78 W 6 9 29.77 1008 10 16 0.00 0.00
3:15 am 03:15 Clear 64 18 57 14 78 78 W 6 9 29.77 1008 10 16 0.00 0.00
3:35 am 03:35 Clear 66 19 57 14 73 73 W 5 7 29.77 1008 10 16 0.00 0.00
3:55 am 03:55 Clear 64 18 57 14 78 78 W 7 11 29.77 1008 10 16 0.00 0.00
4:15 am 04:15 Clear 64 18 55 13 73 73 W 6 9 29.76 1008 10 16 0.00 0.00
4:35 am 04:35 Clear 66 19 55 13 68 68 WNW 6 9 29.77 1008 10 16 0.00 0.00
4:55 am 04:55 Mostly Cloudy 68 20 55 13 64 64 WNW 5 7 29.78 1009 10 16 0.00 0.00
5:15 am 05:15 Mostly Cloudy 68 20 55 13 64 64 NW 5 7 29.79 1009 10 16 0.00 0.00
5:35 am 05:35 Cloudy 68 20 55 13 64 64 NNW 7 11 29.79 1009 10 16 0.00 0.00
5:55 am 05:55 Cloudy 68 20 55 13 64 64 NNW 9 15 29.80 1009 10 16 0.00 0.00
6:15 am 06:15 Mostly Cloudy 68 20 55 13 64 64 NNW 10 17 29.81 1010 10 16 0.00 0.00
6:35 am 06:35 Partly Cloudy 68 20 55 13 64 64 NW 13 20 29.81 1010 10 16 0.00 0.00
6:55 am 06:55 Sunny 68 20 55 13 64 64 NW 10 17 29.81 1010 10 16 0.00 0.00
7:15 am 07:15 Sunny 68 20 55 13 64 64 NW 10 17 29.81 1010 10 16 0.00 0.00
7:35 am 07:35 Sunny 70 21 55 13 60 60 NNW 10 17 29.82 1010 10 16 0.00 0.00
7:55 am 07:55 Sunny 70 21 55 13 60 60 NNW 13 20 29.83 1010 10 16 0.00 0.00
8:15 am 08:15 Partly Cloudy 68 20 54 12 60 60 N 16 26 29.84 1011 10 16 0.00 0.00
8:35 am 08:35 Partly Cloudy 68 20 54 12 60 60 N 20 31 29.84 1011 10 16 0.00 0.00
8:55 am 08:55 Cloudy 68 20 54 12 60 60 N 15 24 29.85 1011 10 16 0.00 0.00
9:15 am 09:15 Cloudy 68 20 54 12 60 60 N 13 20 29.85 1011 10 16 0.00 0.00
9:35 am 09:35 Cloudy 68 20 52 11 56 56 N 17 28 29.86 1011 10 16 0.00 0.00
9:55 am 09:55 Cloudy 66 19 52 11 60 60 N 22 35 29.86 1011 10 16 0.00 0.00
10:15 am 10:15 Mostly Cloudy 68 20 54 12 60 60 NNW 23 37 29.87 1012 10 16 0.00 0.00
10:35 am 10:35 Mostly Cloudy 70 21 54 12 57 57 NNW 17 28 29.87 1012 10 16 0.00 0.00
10:55 am 10:55 Cloudy 68 20 52 11 56 56 N 17 28 29.87 1012 10 16 0.00 0.00
11:15 am 11:15 Mostly Cloudy 68 20 52 11 56 56 NNW 24 39 29.88 1012 N/A 0.00 0.00
11:35 am 11:35 Mostly Cloudy 68 20 52 11 56 56 N 16 26 29.89 1012 N/A 0.00 0.00
11:55 am 11:55 Cloudy 68 20 54 12 60 60 N 17 28 29.90 1013 N/A 0.00 0.00
12:15 pm 12:15 Mostly Cloudy 68 20 52 11 56 56 N 25 41 29.90 1013 N/A 0.00 0.00
12:35 pm 12:35 Mostly Cloudy 70 21 52 11 53 53 NW 28 44 29.90 1013 N/A 0.00 0.00
12:55 pm 12:55 Mostly Cloudy 70 21 54 12 57 57 NW 24 39 29.90 1013 N/A 0.00 0.00
1:15 pm 13:15 Mostly Cloudy 70 21 54 12 57 57 NNW 17 28 29.90 1013 N/A 0.00 0.00
1:35 pm 13:35 Mostly Cloudy 72 22 55 13 57 57 NW 16 26 29.89 1012 N/A 0.00 0.00
1:55 pm 13:55 Partly Cloudy 72 22 54 12 53 53 NNW 23 37 29.89 1012 10 16 0.00 0.00
2:15 pm 14:15 Mostly Cloudy 72 22 55 13 57 57 NNW 21 33 29.89 1012 10 16 0.00 0.00
2:35 pm 14:35 Partly Cloudy 72 22 54 12 53 53 N 20 31 29.90 1012 10 16 0.00 0.00
2:55 pm 14:55 Partly Cloudy 72 22 50 10 47 47 N 18 30 29.91 1013 10 16 0.00 0.00
3:15 pm 15:15 Sunny 72 22 52 11 50 50 N 20 31 29.91 1013 10 16 0.00 0.00
3:35 pm 15:35 Partly Cloudy 73 23 52 11 47 47 N 15 24 29.91 1013 10 16 0.00 0.00
3:55 pm 15:55 Partly Cloudy 73 23 46 8 38 38 NNW 18 30 29.91 1013 10 16 0.00 0.00
4:15 pm 16:15 Sunny 73 23 46 8 38 38 N 17 28 29.91 1013 10 16 0.00 0.00
4:35 pm 16:35 Sunny 73 23 48 9 41 41 NNW 20 31 29.91 1013 10 16 0.00 0.00
4:55 pm 16:55 Sunny 75 24 48 9 39 39 NNW 25 41 29.90 1012 10 16 0.00 0.00
5:15 pm 17:15 Sunny 75 24 46 8 36 36 NNW 17 28 29.91 1013 10 16 0.00 0.00
5:35 pm 17:35 Sunny 75 24 46 8 36 36 NNW 15 24 29.90 1012 10 16 0.00 0.00
5:55 pm 17:55 Sunny 75 24 46 8 36 36 N 13 20 29.90 1012 10 16 0.00 0.00
6:15 pm 18:15 Sunny 75 24 46 8 36 36 NNW 15 24 29.90 1012 10 16 0.00 0.00
6:35 pm 18:35 Sunny 75 24 46 8 36 36 NNW 20 31 29.90 1012 10 16 0.00 0.00
6:55 pm 18:55 Sunny 75 24 46 8 36 36 NNW 13 20 29.91 1013 10 16 0.00 0.00
7:15 pm 19:15 Sunny 73 23 45 7 36 36 N 16 26 29.91 1013 10 16 0.00 0.00
7:35 pm 19:35 Sunny 73 23 45 7 36 36 N 13 20 29.92 1013 10 16 0.00 0.00
7:55 pm 19:55 Sunny 73 23 45 7 36 36 NNW 12 19 29.93 1013 10 16 0.00 0.00
8:15 pm 20:15 Sunny 72 22 45 7 38 38 N 12 19 29.94 1014 10 16 0.00 0.00
8:35 pm 20:35 Sunny 72 22 43 6 36 36 N 10 17 29.94 1014 10 16 0.00 0.00
8:55 pm 20:55 Clear 70 21 45 7 40 40 N 13 20 29.95 1014 10 16 0.00 0.00
9:15 pm 21:15 Clear 70 21 45 7 40 40 NNW 14 22 29.95 1014 10 16 0.00 0.00
9:35 pm 21:35 Clear 70 21 43 6 38 38 NNW 20 31 29.96 1015 10 16 0.00 0.00
9:55 pm 21:55 Clear 68 20 45 7 43 43 NNW 12 19 29.97 1015 10 16 0.00 0.00
10:15 pm 22:15 Clear 68 20 45 7 43 43 NNW 12 19 29.99 1016 10 16 0.00 0.00
10:35 pm 22:35 Clear 68 20 45 7 43 43 NNW 14 22 29.99 1016 10 16 0.00 0.00
10:55 pm 22:55 Clear 66 19 45 7 46 46 NNW 13 20 30.00 1016 10 16 0.00 0.00
11:15 pm 23:15 Clear 66 19 43 6 43 43 NNW 14 22 30.00 1016 10 16 0.00 0.00
11:35 pm 23:35 Clear 64 18 43 6 46 46 N 13 20 30.01 1016 N/A 0.00 0.00
11:55 pm 23:55 Clear 64 18 43 6 46 46 NNW 12 19 30.02 1017 N/A 0.00 0.00

Powered by AerisWeather